Regional Weather Roundup
Issued by NWS

Home | Current Version | Previous Version | Graphics & Text | Print | Product List | Glossary On
Versions: 1 2 3 4 5 6 7 8 9 10 11 12 13 14 15 16 17 18 19 20 21 22 23 24 25 26 27 28 29 30 31 32 33 34 35 36 37 38 39 40 41 42 43 44 45 46 47 48 49 50
000
ASUS45 KBOU 012107
RWRCO

WEATHER ROUNDUP FOR COLORADO
NATIONAL WEATHER SERVICE DENVER/BOULDER CO
300 PM MDT FRI AUG 01 2014

NOTE: "FAIR" INDICATES FEW OR NO CLOUDS BELOW 12000 FEET WITH NO
SIGNIFICANT WEATHER AND/OR OBSTRUCTIONS TO VISIBILITY.

COZ001>005-013-030-031-012200-
...NORTHWEST COLORADO...

CITY           SKY/WX    TMP DP  RH WIND       PRES   REMARKS
CRAIG          MOSUNNY   74  37  26 MISG      30.23F
HAYDEN         MOSUNNY   77  34  20 N3        30.26F
MEEKER         PTSUNNY   80  43  26 SE8       30.25F
MOUNT WERNER   NOT AVBL
STEAMBOAT SPGS MOSUNNY   75  47  36 SW7       30.28F
WALDEN         SUNNY     70  30  23 S9        30.38F
$$

COZ006>008-011-012200-
...WEST CENTRAL VALLEYS...

CITY           SKY/WX    TMP DP  RH WIND       PRES   REMARKS
GRAND JUNCTION PTSUNNY   87  46  24 W14       30.13F
MONTROSE       PTSUNNY   82  47  29 NE17G24   30.21F
EAGLE          PTSUNNY   75  50  41 N9        30.30F
RIFLE          PTSUNNY   82  47  29 N7        30.20F
DELTA          PTSUNNY   82  47  29 NE7       30.18S
NUCLA          PTSUNNY   81  41  24 NW14      30.23S
$$

COZ017>023-064>068-012200-
...SOUTHWEST COLORADO...

CITY           SKY/WX    TMP DP  RH WIND       PRES   REMARKS
DURANGO        TSTM      64  53  67 W6        30.27R
CORTEZ         SUNNY     85  51  31 SW10G20   30.19F
PAGOSA SPRINGS TSTM      59  55  85 NW10G24   30.37R
TELLURIDE      PTSUNNY   68  46  45 SW7       30.42F
WOLF CREEK PAS NOT AVBL
$$

COZ009-010-012-014-032>034-037-058>063-012200-
...CENTRAL COLORADO...

CITY           SKY/WX    TMP DP  RH WIND       PRES   REMARKS
ASPEN          PTSUNNY   59  51  75 SE10      30.40F
BUENA VISTA    CLOUDY    58  50  73 N17       30.42S
COPPER MTN     CLOUDY    48  41  76 NW3       30.66F
BERTHOUD PASS  CLOUDY    37  37 100 E14G23    30.71S FOG
COTTONWOOD PAS RAIN      54  50  87 NW3       30.53S
GUNNISON       CLOUDY    57  50  77 N15G24    30.40S
KREMMLING      MOSUNNY   73  37  27 SW5       30.35F
LEADVILLE      LGT RAIN  49  45  86 W7        30.53R
MONARCH PASS   FOG       45  43  93 NE9       30.74S THUNDER VSB<1/4
SALIDA         PTSUNNY   70  52  52 E13G20    30.44F
SUNLIGHT       PTSUNNY   55  50  82 E3        30.58F
WILKERSON PASS CLOUDY    43  41  93 NE8       30.66S VSB<1/4
$$

COZ069>075-012200-
...SAN LUIS VALLEY/SANGRE DE CRISTO MOUNTAINS...

CITY           SKY/WX    TMP DP  RH WIND       PRES   REMARKS
ALAMOSA        PTSUNNY   71  48  43 CALM      30.33F
LA VETA PASS   CLOUDY    50  48  93 E6        30.54S THUNDER
SAGUACHE       MOSUNNY   70  54  56 SE8       30.36F
$$

COZ035-036-038>040-012200-
...NORTHERN COLORADO FRONT RANGE...

CITY           SKY/WX    TMP DP  RH WIND       PRES   REMARKS
DENVER INTL AP CLOUDY    78  41  26 E13       30.26F
DMNS CITY PARK   N/A     78  41  26 E5G10     30.25S
AURORA         PTSUNNY   75  42  30 E7        30.28F
FRONT RANGE AP NOT AVBL
ERIE MUNI ARPT CLOUDY    81  38  21 SE8       30.24F
BOULDER MUN AP CLOUDY    81  45  28 SE5       30.25F
CENTENNIAL     CLOUDY    73  44  35 S13       30.29S
BROOMFIELD     PTSUNNY   79  39  24 SE6       30.28F
FORT COLLINS   CLOUDY    79  46  31 E7        30.24S
LONGMONT       CLOUDY    84  43  24 S6        30.25F
$$

COZ041-046-047-076>085-087-088-012200-
...PIKES PEAK/PALMER DIVIDE AND SOUTHERN FOOTHILLS...

CITY           SKY/WX    TMP DP  RH WIND       PRES   REMARKS
COLO. SPRINGS  CLOUDY    69  50  50 S5        30.34S
A. F. ACADEMY  CLOUDY    68  43  39 S9        30.34F
ELLICOTT       CLOUDY    70  47  43 S6        30.32S
FALCON         CLOUDY    68  46  44 SE6       30.38S
FORT CARSON    CLOUDY    70  51  51 SE3       30.32S
LIMON          MOSUNNY   79  39  23 SE7G20    30.27F
MONUMENT HILL  PTSUNNY   68  43  40 S12       30.37S
TRINIDAD       TSTM      65  59  81 SW17      30.29R
$$

COZ042>045-048>051-090-091-012200-
...NORTHEAST COLORADO...

CITY           SKY/WX    TMP DP  RH WIND       PRES   REMARKS
GREELEY ARPT   CLOUDY    81  50  34 W3        30.23F
AKRON          MOSUNNY   82  42  24 CALM      30.22F
BURLINGTON     MOSUNNY   84  42  22 VRB7      30.19F
WRAY             N/A     86  46  24 SE6       30.16F
STERLING       MOSUNNY   88  52  29 W3        30.17F
HOLYOKE        SUNNY     90  41  18 CALM      30.17S
FORT MORGAN    MOSUNNY   81  45  27 SE3       30.22F
$$

COZ086-089-092>099-012200-
...SOUTHEAST COLORADO...

CITY           SKY/WX    TMP DP  RH WIND       PRES   REMARKS
PUEBLO         CLOUDY    76  55  48 S5        30.23S
LA JUNTA       MOSUNNY   81  50  33 NE6       30.19F
LAMAR          MOSUNNY   85  51  31 S8        30.15F
SPRINGFIELD      N/A     80  48  32 S9        30.20F
$$


USA.gov is the U.S. government's official web portal to all federal, state and local government web resources and services.